Location: Caserta
(41.0670°N, 14.3330°E)
Time: 04:45:01
(UTC+02:00)

STARLINK-1341 - Pass Details

Date: 11 October 2020
Orbit: 549 x 550 km, 53.0° (Epoch: 20 October)

Event Time Altitude Azimuth Distance (km) Brightness Sun altitude
Exits shadow 05:12:15 16° 347° (NNW) 1,463 5.7 -22.9°
Maximum altitude 05:13:44 19° 15° (NNE) 1,327 5.8 -22.7°
Drops below altitude 10° 05:16:47 10° 62° (ENE) 1,823 7.3 -22.1°
Sets 05:19:31 0° 81° (E) 2,716 8.7 -21.6°
